OBJECT E, 60749

Orbit data source: Space-Track

You're viewing an Uncataloged Satellite

Recently launched and/or uncataloged satellites may have evolving metadata. Metadata may include but not limited to: Owner, Maufacturer, Bus, Motor, and Mission.

OBJECT E, 60749 is a satellite owned by Taizhou Xingkong (CN) in SSO that was launched on Thu, 29 Aug 2024 UTC via a GUSHENXING 1 launch vehicle from the Yellow Sea Launch Area, China (YSLA). Unknown objects in Earth's orbit typically refer to objects detected orbiting the Earth but have not yet been identified or cataloged. These objects could be anything from previously untracked satellites, spent rocket stages, debris from satellite collisions, or even natural meteoroids temporarily captured by Earth's gravity.

Loading next visibility...
Identifier
60749, 2024-153E
Orbit
SSO
Last TLE update
6 hours ago
Origin
Flag of CNTZXK (CN / PRC)
Manufacturer
Shanghai ASES
Mission
Operational Commercial Imaging
Bus & Motor
SUXING, Unknown motor
Mass
~50 kg wet, ~50 kg dry
Launch date (UTC)
2024-08-29 (10 months ago)
Launch vehicle
GUSHENXING 1
Launch site
Yellow Sea Launch Area, China (YSLA)
Object type
Unknown
Shape & HBR
Box + 1 Pan, 5 m
Radar Cross Section
5.339 m², Medium (>0.1 m² and < 1m²)

Expand to show TLE details & history

TLE from 6 hours ago
0 OBJECT E
1 60749U 24153E   25182.18666370  .00012556  00000-0  50451-3 0  9993
2 60749  97.6389 308.0406 0011245 308.0608  51.9614 15.25029842 46429
Epoch: 2025-07-01T04:28Z
TLE epoch observation values (Epoch: 2025-07-01T04:28:47.743Z)
Latitude
-0.00003°
Longitude
-38.64405°
Altitude
489.031 km
Speed
7.623 km/s
True Right ascension
20h 32m 09s
True Declination
0° 00' 00"
Sunlit
Object was in full shadow at epoch
Visualization orbit readout
Latitude
-9.99822°
Longitude
140.24468°
Altitude
499.146 km
Speed
7.612 km/s
Apparent Right ascension
08h 58m 12s
Apparent Declination
-24° 30' 51"
Sunlit
Object is in daylight
Visualization observer readout
Local Sidereal Time
21:40:29
Azimuth
33.138° NE
Elevation
-72.221°
Doppler factor
1
Orbital elements
Apogee altitude
495.386 km
Perigee altitude
479.944 km
Semi-major axis
6,865.802 km
Eccentricity
0.00112
Inclination
97.6389°
RAAN
308.0406°
Arg. of periapsis
308.0608°
True anomaly
Unknown
Mean anomaly
51.9614°
Eccentric anomaly
Unknown
Mean motion
3.8151 °/min
Orbital period
94.36 mins
BSTAR
0.00050451
Loading maneuver chart data...
Loading SW <> Apogee altitude chart data...
Loading historical data...
Loading historical data...
Loading historical data...
Loading historical data...
Loading historical data...
Loading historical data...
Loading historical data...

OBJECT E Visibility forecast

Observer location: undefined°, undefined°

Span
Click to sort rows by Start time (UTC) header in descending order
Start Az.
Max El. time (UTC)
Max El. Az.
Max El.
End time (UTC)
End Az.
5 mins2025-07-01 20:48:06.892Z38.675° NE2025-07-01 20:50:06.892Z81.089° E28.547°2025-07-01 20:53:06.892Z158.459° S
4 mins2025-07-02 08:58:06.892Z214.112° SW2025-07-02 09:00:06.892Z274.749° WNW28.246°2025-07-02 09:02:06.892Z319.661° NNW
|